Theta_e
342 341 341 341 340 340 340 340 341 341 340 339 339 338 337 336 337 337 338 337 337 339 339 339 339 338 338 338 338 338 338 338 337 337 337 337 336 335 335 334 333 333
342 341 341 341 340 340 340 340 341 341 340 340 339 339 338 337 337 338 338 339 339 340 340 339 340 340 340 339 339 339 339 338 338 337 336 337 336 336 335 334 334 333
342 341 341 341 340 340 340 339 340 341 341 340 339 339 338 338 338 338 339 339 340 340 340 340 340 341 341 340 340 340 339 338 338 337 337 336 336 336 335 335 334 334
342 341 341 341 340 340 340 340 340 340 341 341 340 339 339 338 338 338 339 340 340 341 341 341 341 341 341 341 341 340 339 339 338 338 337 336 336 336 335 335 334 334
342 342 341 341 340 340 340 340 340 340 340 340 341 340 339 339 339 339 339 340 341 341 341 342 342 341 342 341 341 340 339 339 338 338 337 336 336 336 336 335 334 334
342 342 342 341 340 340 340 340 340 340 340 340 340 341 340 340 339 339 339 340 341 342 342 342 342 342 342 341 341 340 340 339 339 338 338 337 337 337 336 336 335 335
342 343 342 342 341 340 340 340 340 340 340 340 340 341 340 340 340 339 339 340 341 342 342 342 342 341 341 341 341 341 340 340 339 338 338 338 337 337 336 336 336 335
343 342 343 342 341 340 340 340 340 340 340 341 341 341 341 340 340 340 340 340 340 341 341 341 342 341 341 341 340 340 340 339 339 338 338 338 338 337 337 337 336 336
343 342 342 343 341 341 340 340 341 340 340 341 341 341 341 341 341 340 340 340 340 341 341 341 342 341 341 341 340 340 340 339 339 339 339 339 338 337 337 336 336 336
343 343 342 342 342 341 341 340 341 341 341 341 341 341 342 341 341 341 340 341 341 341 341 341 341 341 341 341 340 340 340 339 340 339 339 339 338 337 337 336 336 336
343 343 342 342 342 341 341 341 341 341 341 341 341 341 342 342 342 342 341 341 341 341 341 341 341 341 341 341 340 340 340 339 339 339 339 338 338 337 337 336 336 336
343 343 342 342 342 341 341 341 341 342 341 341 342 341 342 342 342 342 342 342 341 341 341 341 341 341 341 341 340 340 340 339 339 339 339 338 337 337 337 336 336 336
343 343 342 342 342 341 341 341 341 342 342 341 342 342 342 342 342 343 342 342 342 342 341 342 341 341 341 341 340 340 340 339 339 339 338 338 337 337 337 337 336 336
343 343 343 342 342 342 342 341 341 342 342 342 342 342 342 343 343 343 343 342 342 342 342 342 341 341 341 341 340 340 340 340 339 339 338 337 337 336 336 337 336 335
343 343 342 342 343 342 342 342 342 342 342 342 342 342 342 343 343 343 343 343 343 342 342 342 341 341 341 341 340 340 339 339 338 338 338 337 336 336 336 336 335 334
341 343 343 342 342 343 343 343 342 342 343 343 342 342 342 343 343 343 343 343 343 342 342 342 341 341 341 340 340 340 339 339 338 338 337 337 336 335 334 334 334 333
336 339 343 343 343 343 343 343 343 343 343 343 342 342 342 343 343 342 343 343 342 342 342 341 341 341 340 340 340 340 339 338 337 337 336 336 335 334 333 333 332 332
337 337 340 343 343 343 343 343 343 343 342 342 342 342 342 342 343 343 343 342 342 342 341 341 341 340 340 340 340 340 339 338 337 336 335 335 334 333 332 332 331 330
335 335 339 343 343 343 343 343 343 342 342 341 342 342 341 340 341 341 342 342 342 341 341 341 340 340 339 339 340 340 339 338 337 336 335 334 333 333 332 332 331 330
330 332 337 341 343 343 342 342 342 342 342 342 342 342 341 340 340 340 341 342 342 341 341 341 340 340 339 339 339 340 339 338 337 336 335 334 333 333 332 332 331 330
330 330 332 334 338 341 341 342 342 341 340 340 340 341 342 341 340 341 341 341 341 341 340 340 340 340 339 339 339 339 339 338 336 335 334 333 333 332 332 331 331 330
330 330 331 330 331 333 336 338 338 335 335 336 336 336 339 340 340 340 340 339 339 340 339 339 340 339 339 338 338 339 338 337 336 334 333 332 332 331 331 330 330 329
330 331 331 329 329 329 330 330 331 331 331 332 332 333 335 337 338 338 339 339 339 339 338 338 339 339 338 338 338 338 338 336 334 333 332 331 331 331 330 329 329 329
331 331 331 329 329 329 329 328 329 330 330 329 330 333 334 335 335 335 336 337 338 338 337 338 338 338 337 337 337 338 337 336 334 332 331 330 329 329 329 328 328 328
331 332 331 330 330 330 330 330 330 330 330 330 331 333 333 333 333 333 334 335 336 337 337 337 337 337 337 337 337 337 337 335 333 331 329 328 327 327 326 326 326 326
331 331 331 331 332 331 331 332 331 331 332 333 332 333 333 333 332 332 333 334 335 336 336 336 336 336 336 337 336 336 337 335 332 330 328 327 326 325 324 323 323 324
Wind_Speed
40 42 42 41 40 39 38 38 37 39 40 41 41 40 40 41 41 40 40 39 38 38 38 37 37 36 36 36 35 34 33 34 35 34 34 34 34 34 33 32 31 28
38 39 39 39 38 38 39 39 39 39 40 42 42 40 40 40 41 40 40 39 39 39 38 38 38 37 36 36 36 34 33 33 34 34 34 34 35 34 34 33 31 28
39 39 38 38 39 40 41 41 40 39 39 40 40 40 40 41 40 40 40 40 40 40 39 38 39 38 37 36 35 34 34 34 33 33 33 33 34 34 34 33 32 30
39 39 40 40 40 40 40 39 39 39 38 39 40 41 41 40 41 40 40 40 40 40 40 39 39 39 38 37 35 34 34 34 34 33 32 32 33 34 34 33 32 30
41 40 41 41 40 39 39 39 40 41 40 40 41 41 41 41 41 41 40 40 40 40 40 40 40 40 39 38 37 36 35 34 34 33 33 32 32 33 34 34 33 32
39 39 39 40 39 38 38 40 41 42 42 42 41 41 42 42 41 41 41 41 41 41 41 41 40 40 40 39 38 37 36 35 34 33 33 33 32 32 32 33 33 33
39 39 38 38 38 38 39 40 41 42 42 43 42 42 42 42 42 42 42 42 41 41 41 41 40 40 39 39 39 39 38 37 35 34 34 33 32 32 32 32 32 33
39 39 39 39 39 39 39 39 40 41 43 42 42 43 44 44 43 42 42 42 41 40 40 40 40 40 39 39 40 39 38 37 36 36 35 33 33 32 33 32 32 32
39 39 39 39 39 39 39 39 40 41 42 43 43 43 44 44 43 42 41 41 40 39 39 39 40 40 39 40 40 40 39 38 37 37 36 35 34 34 34 33 32 32
39 39 40 39 40 40 40 40 40 41 41 43 44 43 42 43 42 41 39 39 38 38 38 39 39 39 39 40 40 41 40 40 38 37 37 37 37 35 34 34 33 32
40 39 39 40 41 41 41 41 40 40 41 42 43 42 42 41 40 39 38 38 38 38 38 38 38 39 39 39 40 41 40 40 39 38 38 38 38 37 36 35 35 34
40 39 39 41 42 41 41 41 40 39 39 41 42 41 41 39 37 37 38 38 39 38 37 37 37 38 39 40 40 40 39 39 38 38 38 38 38 38 37 37 36 35
39 40 40 40 41 42 41 39 38 38 37 37 38 38 38 38 37 37 38 38 38 38 38 38 37 37 39 39 40 39 39 38 38 38 38 37 38 38 37 37 36 35
40 40 40 40 39 40 39 36 35 34 34 34 34 36 38 39 39 39 38 38 37 37 38 37 37 38 39 39 40 39 39 38 38 38 38 37 37 37 37 36 35 34
36 37 37 38 38 36 34 33 32 33 32 33 34 36 37 38 38 38 36 35 35 36 37 37 38 39 40 40 40 40 39 39 38 38 38 38 37 36 36 36 35 34
32 34 36 35 35 34 33 32 32 32 32 33 34 35 34 32 33 34 34 34 34 35 36 37 38 40 41 42 42 41 40 39 38 38 38 38 37 36 36 36 36 35
36 34 34 35 35 34 33 33 33 33 32 32 32 33 32 30 30 31 33 34 34 34 35 37 38 40 40 42 44 44 42 40 39 38 38 38 37 37 37 37 36 35
40 38 35 33 35 36 35 35 35 34 33 32 31 31 30 29 29 30 31 32 32 33 35 37 39 39 40 42 45 46 44 41 40 39 39 39 39 38 38 37 36 34
27 35 37 35 36 38 38 38 36 35 34 32 30 28 26 23 24 27 29 30 32 33 34 37 39 39 40 42 45 47 46 43 41 40 40 40 40 39 38 38 37 35
22 24 29 36 40 40 39 38 38 37 37 36 34 32 28 24 20 21 25 28 31 33 34 36 38 39 41 42 44 47 48 46 43 41 41 41 41 40 39 38 37 36
29 23 22 24 32 37 39 41 41 38 36 36 37 37 36 34 30 29 29 29 29 30 32 35 38 39 40 41 43 46 48 47 44 41 41 41 41 41 40 39 38 37
31 29 22 18 19 19 24 29 31 30 28 29 33 35 36 37 37 36 35 33 30 30 32 35 38 39 39 40 42 46 48 48 44 42 41 41 41 41 40 40 39 37
32 33 30 25 23 17 12 13 18 21 21 21 24 29 33 35 36 37 38 39 39 37 37 37 38 38 38 39 41 45 48 48 44 42 41 40 41 41 41 40 39 38
34 35 33 32 31 24 19 22 27 29 30 29 28 29 32 34 35 35 36 39 40 40 40 39 38 38 37 38 41 46 49 49 45 41 40 40 39 40 40 40 40 38
33 34 31 30 31 29 28 33 35 32 33 35 36 34 33 33 31 29 30 34 38 41 43 42 40 38 39 40 42 46 50 50 46 41 39 39 38 38 39 40 40 39
33 32 31 31 31 32 33 36 36 31 29 31 34 35 34 34 32 31 30 33 37 40 43 45 44 41 42 44 44 46 51 52 46 42 41 39 38 38 38 38 39 40
Wind_Direction
197 195 196 198 199 201 200 199 199 199 199 198 199 200 200 202 203 204 205 207 208 210 213 215 216 216 218 220 221 221 223 222 221 221 220 219 220 220 220 219 219 223
200 197 197 198 199 201 202 202 201 200 200 200 201 201 201 202 204 204 206 207 208 210 213 216 218 217 218 220 222 222 221 220 219 219 219 219 219 220 220 220 220 223
202 199 199 200 200 202 202 203 203 202 201 201 202 202 202 203 204 205 206 206 208 209 211 215 218 219 218 218 220 220 220 219 219 218 218 219 220 220 221 221 222 223
202 201 201 203 203 203 203 202 203 203 202 202 203 204 204 204 205 206 206 207 208 209 210 211 215 218 219 218 218 218 219 221 221 219 218 219 221 221 222 221 222 224
203 202 203 205 205 205 203 203 203 204 204 204 204 205 205 205 205 206 206 206 207 208 209 209 211 214 217 218 218 217 217 219 220 220 219 219 220 221 222 221 220 222
203 204 205 206 206 206 205 204 204 204 204 205 206 206 206 206 206 207 207 206 207 207 207 208 209 212 214 216 218 218 218 218 217 218 219 220 220 219 219 220 220 221
204 205 206 207 207 207 207 207 206 204 204 205 206 206 207 207 207 208 207 207 207 207 207 207 208 210 212 214 215 217 219 219 218 218 219 220 219 217 217 219 221 222
206 206 207 208 209 208 208 208 206 205 205 204 206 207 207 207 208 208 208 208 208 208 208 209 209 210 210 212 213 216 217 218 218 218 218 219 217 216 217 219 221 223
207 207 208 209 210 210 210 209 208 207 205 204 206 207 207 208 208 208 208 208 209 209 209 210 210 210 211 211 212 214 215 216 217 217 217 217 217 216 216 216 218 221
209 208 208 209 210 211 211 211 209 208 206 205 206 207 207 208 208 208 208 209 210 210 210 211 211 210 211 212 213 214 215 216 216 216 217 218 218 217 215 215 215 218
209 209 209 209 211 212 213 212 211 210 208 207 206 206 207 207 206 206 208 209 211 212 211 212 212 212 212 214 215 215 216 216 216 217 217 218 219 219 217 216 217 219
208 209 210 210 211 212 214 214 213 212 210 208 207 206 206 204 204 205 207 210 212 213 213 214 213 213 214 215 216 216 217 217 218 218 218 218 218 218 219 219 220 222
210 210 211 212 212 213 214 215 214 213 212 211 209 207 205 202 201 205 208 211 213 214 215 215 215 214 215 216 217 217 218 218 218 219 219 218 218 218 219 220 221 222
210 211 211 211 213 214 215 215 216 216 214 212 210 210 208 203 201 204 207 209 212 214 215 215 215 215 215 216 218 218 218 219 219 219 219 219 219 219 218 220 221 222
215 212 212 212 212 214 216 216 215 216 215 213 211 212 212 206 201 202 205 207 210 213 215 215 215 216 215 216 217 218 219 219 219 219 219 219 219 219 219 220 221 220
229 217 212 211 211 211 213 215 216 216 215 213 212 213 214 210 203 201 203 206 209 212 214 215 216 217 217 216 217 218 218 219 220 220 219 220 219 219 219 219 220 220
232 225 215 209 209 210 211 213 215 215 213 212 212 212 213 210 204 201 203 206 210 212 215 217 218 218 217 216 217 218 217 217 218 220 219 219 219 218 217 217 217 218
221 221 217 209 206 207 208 209 211 211 209 208 208 208 209 208 205 203 204 206 210 214 217 219 221 221 219 217 217 218 217 216 217 219 218 218 219 218 217 217 216 217
230 222 215 207 206 207 206 204 205 206 205 203 200 198 199 202 205 206 206 207 211 216 220 222 224 223 221 219 218 218 218 216 217 218 218 218 219 219 218 218 217 218
250 245 224 208 205 206 203 201 201 202 202 200 197 193 191 192 199 208 210 211 214 218 222 225 227 226 224 221 219 219 218 217 217 218 219 219 219 219 220 220 219 220
228 246 250 232 217 209 203 203 202 201 200 199 197 196 195 197 201 207 210 212 217 222 225 228 230 229 227 223 220 220 219 217 217 217 218 219 220 220 221 221 221 221
219 222 235 258 262 235 209 200 199 199 201 200 198 199 201 202 203 204 207 210 216 223 228 232 234 232 230 225 221 220 219 216 215 217 217 218 219 220 221 222 221 222
222 220 221 234 252 255 237 209 198 201 207 205 202 203 204 204 204 205 209 213 215 219 225 231 234 234 231 227 223 220 218 215 214 215 216 217 219 220 221 221 221 223
221 225 223 221 218 215 221 226 218 210 210 212 214 212 208 208 209 209 211 213 214 217 223 228 233 233 231 228 224 221 218 215 214 214 215 216 217 218 220 220 221 223
219 221 215 205 198 197 211 224 223 214 206 206 210 211 209 209 211 212 215 215 215 218 221 224 228 232 232 228 225 222 219 216 214 214 213 214 215 215 216 218 220 221
218 216 207 198 196 197 205 214 218 212 203 201 205 207 208 208 208 210 216 220 221 222 222 223 224 227 230 228 224 222 219 216 213 213 212 212 212 213 213 215 217 219